NOAA 16 DEB, 41077

Orbit data source: Space-Track

NOAA 16 DEB, 41077 is space debris in SSO originally from a launch on Thu, 21 Sep 2000 UTC launched from the Air Force Western Test Range (AFWTR). Debris objects in space refer to the collection of defunct objects orbiting the Earth. Examples of debris include non-operational satellites, rocket bodies, and fragments generated from explosions, collisions, or faulty payload assembly.

Loading next visibility...
Identifier
41077, 2000-055AL
Orbit
SSO
Country
Flag of USUS
Related business
Manufacturer
Unknown
Mission
Spacecraft
Bus & Motor
Unknown
Mass
Unknown
Launch date (UTC)
2000-09-21 (26 years ago)
Launch vehicle
Unknown
Launch site
Air Force Western Test Range (AFWTR)
Object type
Payload
Rocket body
Debris
Shape & HBR
Unknown shape, 0.1 m
Radar Cross Section
Medium (>0.1 m² and <1 m²)

Expand to show TLE details & history
Last TLE update: 18 hours ago

TLE from 18 hours ago
0 NOAA 16 DEB
1 41077U 00055AL  26208.47614911  .00000477  00000-0  37097-3 0  9997
2 41077  98.8058 218.2624 0114410  75.5335 285.8489 13.93947841541859
Epoch: 2026-07-27T11:25Z
TLE epoch observation values (Epoch: 2026-07-27T11:25:39.283Z)
Latitude
-0.00005°
Longitude
101.68955°
Altitude
895.801 km
Speed
7.415 km/s
True Right ascension
14h 33m 02s
True Declination
0° 00' 00"
Sunlit
Object was in daylight at epoch
Visualization orbit readout
Latitude
Unknown
Longitude
Unknown
Altitude
Unknown
Speed
Unknown
Apparent Right ascension
Unknown
Apparent Declination
Unknown
Sunlit
N/A
Visualization observer readout
Local Sidereal Time
18:25:11
Azimuth
Unknown
Elevation
Unknown
Doppler factor
Unknown
Orbital elements
Apogee altitude
995.433 km
Perigee altitude
828.619 km
Semi-major axis
7,290.163 km
Eccentricity
0.01144
Inclination
98.8058°
RAAN
218.2624°
Arg. of periapsis
75.5335°
True anomaly
284.58286°
Mean anomaly
285.8489°
Eccentric anomaly
285.21636°
Mean motion
3.48688 °/min
Orbital period
103.24 mins
BSTAR
0.00037097
Loading maneuver chart data...
Computing Atmospheric mass density...
Loading historical data...
Loading historical data...
Loading historical data...
Loading historical data...
Loading historical data...
Loading historical data...
Loading historical data...

Documentation

Showing up to 5 results
|